Regional Weather Roundup
Issued by NWS Grand Forks, ND

Home | Current Version | Previous Version | Graphics & Text | Print | Product List | Glossary On
Versions: 1 2 3 4 5 6 7 8 9 10 11 12 13 14 15 16 17 18 19 20 21 22 23 24 25 26 27 28 29 30 31 32 33 34 35 36 37 38 39 40 41 42 43 44 45 46 47 48 49 50
000
ASUS43 KFGF 011431
RWRFGF
PRAIRIE TO PINES  WEATHER ROUNDUP
NATIONAL WEATHER SERVICE EASTERN NORTH DAKOTA/GRAND FORKS ND
900 AM CDT SUN MAY 01 2016

 **SATELLITE DATA USED TO AUGMENT SKY COVER AT AUTOMATED STATIONS**
 *****  WEATHER ACROSS EASTERN NORTH DAKOTA  *****

CITY           SKY/WX    TMP DP  RH WIND       PRES   REMARKS
GRAND FORKS    SUNNY     47  30  51 NE3       30.32S
GRAND FRKS AFB SUNNY     47  30  50 VRB3      30.32S
DEVILS LAKE    SUNNY     49  30  48 N5        30.34R
FARGO          SUNNY     49  30  48 N5        30.30S
WAHPETON ARPT  SUNNY     48  30  49 E9        30.29S
$$

 ***** WEATHER ACROSS CENTRAL AND WESTERN NORTH DAKOTA  *****

CITY           SKY/WX    TMP DP  RH WIND       PRES   REMARKS
BISMARCK       SUNNY     44  33  65 CALM      30.34S
MINOT          SUNNY     50  30  46 VRB3      30.34S
JAMESTOWN      SUNNY     46  31  55 NE6       30.31R
MINOT AFB      SUNNY     46  32  58 N3        30.33S
GARRISON         N/A     47  34  60 CALM      30.34R
WILLISTON      SUNNY     43  31  62 NE5       30.36R
DICKINSON      SUNNY     43  30  60 NW5       30.32R
HETTINGER      SUNNY     43  33  68 NW5       30.34S
$$

 *****  OTHER AIRPORT OBSERVATIONS IN OUR AREA  *****

CITY           SKY/WX    TMP DP  RH WIND       PRES   REMARKS
WALHALLA       FAIR      50  32  50 CALM      30.32F
GRAFTON AIRPOR FAIR      50  32  50 CALM      30.34S
VALLEY CITY AR FAIR      48  32  53 NE3       30.32F
CANDO          FAIR      50  32  50 N5        30.35S
CAVALIER APRT  FAIR      48  32  53 CALM      30.32S
GWINNER        FAIR      48  32  53 NE9       30.30S
SHEYENNE NWR     N/A     48  32  53 N6        29.95S
ROLLA          FAIR      52  27  37 N6        30.33F
 ***** THE ABOVE OBSERVATIONS ARE NON NWS ARE NOT QUALITY
       CONTROLLED AND MAY MIS-REPORT RAIN FOR SNOW...
$$

  *****  WEATHER ACROSS NORTHERN MINNESOTA  *****

CITY           SKY/WX    TMP DP  RH WIND       PRES   REMARKS
FLAG ISLAND    SUNNY     43  30  61 SE5       30.31F
WARROAD        SUNNY     45  37  76 E3        30.32S
ROSEAU         SUNNY     48  37  66 CALM      30.31S
HALLOCK        SUNNY     54  25  32 CALM      30.31F
THF RVR FALLS  SUNNY     48  30  49 W5        30.32S
BAUDETTE       SUNNY     46  30  53 E3        30.31S
WASKISH        SUNNY     46  36  66 W7        30.30S
CROOKSTON      SUNNY     48  34  57 W8        30.32S
STEPHEN NDAWN    N/A     48  32  53 SE2         N/A
GREENBUSH NDAW   N/A     48  34  57 SE1         N/A
$$
  *****  WEATHER ACROSS CENTRAL AND WEST MINNESOTA  *****

CITY           SKY/WX    TMP DP  RH WIND       PRES   REMARKS
FOSSTON        SUNNY     50  27  40 CALM      30.30S
BEMIDJI        SUNNY     47  29  51 E3        30.29S
PARK RAPIDS    SUNNY     47  28  47 NE8       30.27F
ELBOW LAKE     FAIR      45  32  60 NE13      30.27S
WADENA         SUNNY     45  30  57 NE9       30.26S
DETROIT LAKES  SUNNY     46  30  53 NE7       30.29S
MOORHEAD       SUNNY     48  28  46 NE3       30.31S
FERGUS FALLS   SUNNY     46  30  53 NE9       30.26S
MORRIS MN      SUNNY     46  34  61 NE17      30.23S
STAPLES        SUNNY     45  30  57 NE6       30.26S
$$
  *****  WEATHER ELSEWHERE ACROSS MINNESOTA  *****

CITY           SKY/WX    TMP DP  RH WIND       PRES   REMARKS
DULUTH         PTSUNNY   41  33  73 E13       30.25R
INTRNTL FALLS  SUNNY     46  31  55 NE5       30.31S
ELY            SUNNY     43  32  65 NE6       30.27S
CLOQUET        PTSUNNY   43  34  70 NE12G20   30.25R
WHEATON        SUNNY     48  34  57 NE13G20   30.28S
BRAINERD       SUNNY     44  31  60 NE13G18   30.26S
HIBBING        SUNNY     42  31  64 VRB3      30.27S
ALEXANDRIA     SUNNY     44  31  60 NE14      30.25S
SAINT CLOUD    SUNNY     45  33  63 NE12G21   30.21S
MINNEAPOLIS    PTSUNNY   46  34  62 NE14G20   30.17R
$$

  *****  WEATHER ACROSS SOUTH DAKOTA  *****

CITY           SKY/WX    TMP DP  RH WIND       PRES   REMARKS
SIOUX FALLS    LGT RAIN  40  35  83 N12       30.17R
BROOKINGS      SUNNY     41  31  67 NE12      30.19R
WATERTOWN      SUNNY     43  30  60 NE12      30.22R
HURON          SUNNY     43  32  65 NE13      30.24R
SISSETON         N/A     47  31  53 E14       30.26S
ABERDEEN       SUNNY     46  32  58 N15       30.29R
MITCHELL       MOSUNNY   41  35  79 N12       30.22R
PIERRE         SUNNY     44  33  65 N9        30.27R
MOBRIDGE       SUNNY     46  33  60 N10       30.28R
RAPID CITY     SUNNY     45  31  58 N15       30.31R
$$

  *****  SOME WEATHER IN NEARBY STATES *****

CITY           SKY/WX    TMP DP  RH WIND       PRES   REMARKS
GLASGOW MT     PTSUNNY   44  33  65 CALM      30.35R
GREAT FALLS MT SUNNY     37  33  85 W5        30.34R
CHEYENNE WY    CLOUDY    31  27  85 N10       30.29R WCI  22
SCOTTSBLUFF NE CLOUDY    40  33  76 N12       30.31R
OMAHA NE       DRIZZLE   45  44  97 N10       30.03R FOG
DES MOINES IA  CLOUDY    46  43  89 E8        30.00R
DAVENPORT IA   CLOUDY    47  45  93 NE14      29.99S FOG
CHICAGO IL     FOG       43  43 100 NE13      30.00R VSB 3/4
EAU CLAIRE WI  SUNNY     47  35  63 NE10      30.14R
LA CROSSE WI   CLOUDY    48  35  60 NE8       30.10R
$$

  *****  SOME NATIONAL WEATHER *****

CITY           SKY/WX    TMP DP  RH WIND       PRES   REMARKS
LA GUARDIA NY  LGT RAIN  50  43  77 SE9       30.21F
RALEIGH NC     CLOUDY    64  61  88 S9        30.09S
ATLANTA GA     MOSUNNY   74  67  78 S7        30.04R
NEW ORLEANS LA CLOUDY    78  73  84 SE10      29.89F HAZE
OKLAHOMA CITY  MOSUNNY   49  39  68 NW20      30.09R
ALBUQUERQUE NM MOSUNNY   44  30  57 E30G38    30.01R
SALT LAKE CITY PTSUNNY   49  23  36 E16G25    30.06R
LOS ANGELES CA MOSUNNY   57  51  80 E7        29.89R
BOISE ID       SUNNY     45  37  73 CALM      30.15R
SEATTLE WA     MOSUNNY   51  45  79 NE5       30.22F
$$

*** WEATHER ACROSS MANITOBA...SASKATCHEWAN AND ONTARIO ***
                ***ONTARIO***

CITY           SKY/WX    TMP DP  RH WIND       PRES   REMARKS
GERALDTON      CLOUDY    39  34  81 E7        30.32S
THUNDER BAY    MOSUNNY   46  36  66 E12G17    30.29S
SIOUX LOOKOUT  MOSUNNY   43  28  56 SE5       30.33S
TORONTO        DRIZZLE   46  45  93 NE13      29.98F FOG
BIG TROUT LK   SUNNY     39  28  65 S3        30.29F
PICKLE LAKE    MOSUNNY   45  27  49 S9        30.31F
DRYDEN         SUNNY     45  28  53 SE6       30.31F
KENORA         SUNNY     46  30  53 S6        30.31S
$$
                *** MANITOBA***

CITY           SKY/WX    TMP DP  RH WIND       PRES   REMARKS
BRANDON        MOSUNNY   52  30  43 W6        30.34F
DAUPHIN        SUNNY     54  32  43 W10       30.31F
ISLAND LAKE    PTSUNNY   46  30  53 CALM      30.24F
PILOT MOUND      N/A     50  30  46 NW3         N/A
THE PAS        PTSUNNY   54  32  43 S12       30.18F
THOMPSON       MOSUNNY   54  32  43 S5        30.13F
WINNIPEG       SUNNY     48  30  49 W5        30.32
LYNN LAKE      PTSUNNY   50  32  50 W8        30.05F
CHURCHILL      PTSUNNY   36  30  80 S13       30.11F
$$
                ***SASKATCHEWAN***

CITY           SKY/WX    TMP DP  RH WIND       PRES   REMARKS
ESTEVAN        MOSUNNY   46  28  49 CALM      30.35S
KINDERSLEY     PTSUNNY   46  36  66 S8        30.29S
LLOYDMINSTER   PTSUNNY   50  37  62 W12       30.22F
PRINCE ALBERT  PTSUNNY   52  36  54 W6        30.20F
REGINA         MOSUNNY   48  27  43 S8        30.31F
YORKTON        SUNNY     50  32  50 SW14      30.30F
N. BATTLEFORD  SUNNY     50  37  62 SW8       30.26F
LA RONGE       PTSUNNY   52  43  71 VRB2      30.11F
SASKATOON      PTSUNNY   54  34  47 SW6       30.27S
SWIFT CURRENT  SUNNY     50  37  62 SW8G32    30.30S
$$
NOTE: THESE ARE AUTOMATED STATIONS WITH LIMITED QUALITY CONTROL
      "FAIR" INDICATES FEW OR NO CLOUDS BELOW 12,000 FEET WITH NO
      SIGNIFICANT WEATHER AND/OR OBSTRUCTIONS TO VISIBILITY.
      SKY/WX - SKY CONDITION AND SIGNIFICANT WEATHER.
      TMP - AIR TEMPERATURE.    DP   - DEWPOINT TEMPERATURE.
      RH  - RELATIVE HUMIDITY.  PRES - PRESSURE.
      HX  - HEAT INDEX.         WCI  - WIND CHILL INDEX.
$




USA.gov is the U.S. government's official web portal to all federal, state and local government web resources and services.